Вернуться в каталог

STARLINK-4536

АктивенСвязьVLEO
NORAD 53783·PAYLOAD·🇺🇸 United States

Запущен Sep 11, 2022 с Cape Canaveral Space Force Station

Loading…

Ближайшие Пролёты (ближайшие 24 часа)

TLE

СвежийSource: CelesTrak SupGP

Эпоха: Sep 15, 2026, 01:33 UTC

1 53783C 22111L   26258.06506944  .00683630  00000+0  20663-1 0  2581
2 53783  53.1606 141.4233 0001349  80.0907 259.7067 15.33332172    15

Отслеживайте STARLINK-4536 в реальном времени с AllMySat

Download on the App Store